Date String (YYYY-MM-DD hh:mm:ss) UTC,Instrument flags,Ambient pressure (hPa),Sample flow (lpm),Bypass flow (lpm),Sample temperature (°C),Ambient temperature (°C),ASC tube jacket temperature (°C),LED temperature (°C),Box temperature (°C),Sample RH (%),Span deviation,Mass concentration (μg/m³),Mass concentration (μg/m³),Mass concentration (μg/m³)
DateTimeUTC,F1_M11,P_M11,Q1_M11,Q2_M11,T1_M11,T2_M11,T3_M11,T4_M11,T5_M11,U1_M11,ZSPAN_M11,X0_M11,X2_M11,X1_M11
2022-01-19 20:00:00,,0831.2,5.00,0.00,21.9,21.6,00.0,30.9,23.6,11.9,0000.0,0002.54,0001.73,0001.68
2022-01-19 20:01:00,,0831.2,4.99,0.00,21.9,21.5,00.0,30.9,23.5,12.0,0000.0,0002.56,0001.74,0001.68
2022-01-19 20:02:00,,0831.1,5.02,0.00,21.9,21.4,00.0,30.9,23.5,12.0,0000.0,0002.56,0001.73,0001.67
2022-01-19 20:03:00,,0831.1,4.99,0.00,21.8,21.3,00.0,30.9,23.4,12.1,0000.0,0002.58,0001.73,0001.66
2022-01-19 20:04:00,,0831.1,4.99,0.00,21.8,21.3,00.0,30.9,23.4,12.1,0000.0,0002.64,0001.75,0001.66
2022-01-19 20:05:00,,0831.0,5.02,0.00,21.8,21.2,00.0,30.9,23.4,12.1,0000.0,0002.66,0001.76,0001.65
2022-01-19 20:06:00,,0831.0,4.99,0.00,21.7,21.2,00.0,30.9,23.3,12.1,0000.0,0002.66,0001.76,0001.64
2022-01-19 20:07:00,,0831.0,5.01,0.00,21.7,21.2,00.0,30.8,23.3,12.1,0000.0,0002.34,0001.73,0001.62
2022-01-19 20:08:00,,0831.0,5.00,0.00,21.8,21.9,00.0,30.9,23.5,12.0,0000.0,0002.24,0001.71,0001.59
2022-01-19 20:09:00,,0831.0,4.99,0.00,22.0,22.8,00.0,30.9,23.9,11.9,0000.0,0002.18,0001.68,0001.57
2022-01-19 20:10:00,,0831.0,5.00,0.00,22.1,23.1,00.0,30.9,24.1,11.8,0000.0,0002.18,0001.68,0001.57
2022-01-19 20:11:00,,0831.0,5.00,0.00,22.2,22.9,00.0,31.0,24.1,11.7,0000.0,0002.26,0001.71,0001.57
2022-01-19 20:12:00,,0831.0,4.99,0.00,22.2,22.6,00.0,31.0,24.0,11.7,0000.0,0002.27,0001.72,0001.58
2022-01-19 20:13:00,,0831.0,5.01,0.00,22.1,22.3,00.0,31.0,23.9,11.7,0000.0,0002.28,0001.74,0001.60
2022-01-19 20:14:00,,0831.0,4.99,0.00,22.1,22.1,00.0,31.0,23.8,11.7,0000.0,0002.27,0001.73,0001.60
2022-01-19 20:15:00,,0830.9,5.01,0.00,22.1,21.9,00.0,31.0,23.7,11.7,0000.0,0002.27,0001.77,0001.64
2022-01-19 20:16:00,,0831.0,4.99,0.00,22.0,21.8,00.0,31.0,23.7,11.7,0000.0,0002.32,0001.82,0001.70
2022-01-19 20:17:00,,0830.9,5.01,0.00,22.0,21.7,00.0,31.0,23.6,11.7,0000.0,0002.40,0001.91,0001.79
2022-01-19 20:18:00,,0830.9,4.98,0.00,21.9,21.6,00.0,31.0,23.6,11.8,0000.0,0002.45,0001.96,0001.85
2022-01-19 20:19:00,,0830.9,5.01,0.00,21.9,21.5,00.0,31.0,23.5,11.8,0000.0,0002.43,0001.96,0001.86
2022-01-19 20:20:00,,0830.9,4.99,0.00,21.9,21.4,00.0,31.0,23.4,11.8,0000.0,0002.45,0001.97,0001.87
2022-01-19 20:21:00,,0830.9,5.01,0.00,21.8,21.3,00.0,31.0,23.3,11.9,0000.0,0002.44,0001.97,0001.88
2022-01-19 20:22:00,,0830.9,5.00,0.00,21.8,21.6,00.0,30.9,23.4,11.8,0000.0,0002.36,0001.94,0001.87
2022-01-19 20:23:00,,0830.9,5.00,0.00,22.0,22.4,00.0,31.0,23.8,11.7,0000.0,0002.33,0001.93,0001.87
2022-01-19 20:24:00,,0830.9,4.99,0.00,22.1,23.1,00.0,31.0,24.0,11.5,0000.0,0002.30,0001.90,0001.85
2022-01-19 20:25:00,,0831.0,5.00,0.00,22.2,22.9,00.0,31.0,24.1,11.5,0000.0,0002.29,0001.90,0001.85
2022-01-19 20:26:00,,0831.0,5.00,0.00,22.2,22.6,00.0,31.1,24.0,11.5,0000.0,0002.28,0001.86,0001.82
2022-01-19 20:27:00,,0830.9,4.99,0.00,22.1,22.3,00.0,31.1,23.9,11.5,0000.0,0002.22,0001.81,0001.77
2022-01-19 20:28:00,,0830.9,5.01,0.00,22.1,22.1,00.0,31.1,23.8,11.6,0000.0,0002.14,0001.74,0001.71
2022-01-19 20:29:00,,0830.9,4.99,0.00,22.1,21.9,00.0,31.1,23.7,11.6,0000.0,0002.09,0001.69,0001.66
2022-01-19 20:30:00,,0830.9,4.99,0.00,22.0,21.7,00.0,31.0,23.6,11.6,0000.0,0002.10,0001.69,0001.65
2022-01-19 20:31:00,,0830.9,4.99,0.00,22.0,21.6,00.0,31.0,23.5,11.6,0000.0,0002.10,0001.68,0001.64
2022-01-19 20:32:00,,0830.9,4.99,0.00,21.9,21.5,00.0,31.0,23.4,11.7,0000.0,0002.12,0001.69,0001.63
2022-01-19 20:33:00,,0830.9,5.01,0.00,21.8,21.3,00.0,31.0,23.4,11.7,0000.0,0002.14,0001.69,0001.62
2022-01-19 20:34:00,,0831.0,5.00,0.00,21.8,21.5,00.0,31.0,23.4,11.7,0000.0,0002.12,0001.67,0001.60
2022-01-19 20:35:00,,0830.9,5.00,0.00,22.0,22.2,00.0,31.0,23.7,11.5,0000.0,0002.13,0001.66,0001.59
2022-01-19 20:36:00,,0831.0,4.98,0.00,22.1,22.9,00.0,31.1,24.0,11.4,0000.0,0002.10,0001.63,0001.56
2022-01-19 20:37:00,,0831.0,5.00,0.00,22.2,22.8,00.0,31.1,24.1,11.2,0000.0,0002.04,0001.59,0001.52
2022-01-19 20:38:00,,0830.9,5.01,0.00,22.2,22.5,00.0,31.1,24.0,11.1,0000.0,0001.99,0001.55,0001.48
2022-01-19 20:39:00,,0831.0,5.00,0.00,22.1,22.3,00.0,31.1,23.8,11.1,0000.0,0001.97,0001.52,0001.44
2022-01-19 20:40:00,,0831.0,4.99,0.00,22.1,22.0,00.0,31.1,23.7,11.0,0000.0,0001.95,0001.50,0001.41
2022-01-19 20:41:00,,0831.0,5.00,0.00,22.0,21.8,00.0,31.1,23.6,11.0,0000.0,0001.97,0001.49,0001.40
2022-01-19 20:42:00,,0831.0,5.02,0.00,21.9,21.6,00.0,31.1,23.5,11.0,0000.0,0001.93,0001.47,0001.38
2022-01-19 20:43:00,,0831.0,4.99,0.00,21.9,21.4,00.0,31.0,23.4,11.0,0000.0,0001.89,0001.44,0001.36
2022-01-19 20:44:00,,0831.0,5.00,0.00,21.8,21.5,00.0,31.0,23.4,11.0,0000.0,0001.89,0001.43,0001.34
2022-01-19 20:45:00,,0831.0,5.00,0.00,22.0,22.2,00.0,31.0,23.7,10.9,0000.0,0001.90,0001.43,0001.32
2022-01-19 20:46:00,,0830.9,5.00,0.00,22.1,23.0,00.0,31.1,24.1,10.8,0000.0,0001.88,0001.42,0001.32
2022-01-19 20:47:00,,0831.0,4.99,0.00,22.3,23.1,00.0,31.1,24.2,10.7,0000.0,0001.86,0001.41,0001.32
2022-01-19 20:48:00,,0831.0,5.00,0.00,22.3,22.8,00.0,31.1,24.1,10.7,0000.0,0001.85,0001.41,0001.33
2022-01-19 20:49:00,,0831.0,5.00,0.00,22.2,22.5,00.0,31.1,24.0,10.7,0000.0,0001.88,0001.41,0001.32
2022-01-19 20:50:00,,0831.0,5.01,0.00,22.2,22.2,00.0,31.1,23.8,10.8,0000.0,0002.00,0001.46,0001.34
2022-01-19 20:51:00,,0830.9,4.99,0.00,22.1,22.0,00.0,31.1,23.7,10.8,0000.0,0002.00,0001.47,0001.34
2022-01-19 20:52:00,,0831.0,4.99,0.00,22.1,21.8,00.0,31.1,23.6,10.8,0000.0,0001.96,0001.46,0001.34
2022-01-19 20:53:00,,0831.0,5.01,0.00,22.0,21.7,00.0,31.1,23.6,10.8,0000.0,0001.96,0001.47,0001.36
2022-01-19 20:54:00,,0831.0,4.99,0.00,21.9,21.5,00.0,31.1,23.5,10.9,0000.0,0001.97,0001.48,0001.38
2022-01-19 20:55:00,,0831.0,4.99,0.00,21.9,21.3,00.0,31.1,23.4,11.0,0000.0,0002.08,0001.50,0001.39
2022-01-19 20:56:00,,0831.0,5.01,0.00,21.8,21.3,00.0,31.0,23.3,11.0,0000.0,0002.15,0001.53,0001.42
2022-01-19 20:57:00,,0831.0,4.99,0.00,21.9,21.9,00.0,31.0,23.6,11.0,0000.0,0002.15,0001.54,0001.43
2022-01-19 20:58:00,,0831.0,5.00,0.00,22.1,22.7,00.0,31.1,23.9,10.9,0000.0,0002.18,0001.56,0001.46
2022-01-19 20:59:00,,0831.0,5.00,0.00,22.2,23.1,00.0,31.1,24.1,10.8,0000.0,0002.20,0001.59,0001.48
